Weather in Cairo

Egypt     30°00′26″N   31°13′50″E
temp.,
°C
wind,
m/s
gust,
m/s
humid.,
%
clouds,
%
prec.,
mm/h
press.,
hPa
HPBL,
m
26 june, sun
sun2623:00+26nne78460 0.0 1011701
02:00+25n46550 0.0 1011512
05:00+24n34600 0.0 1011442
08:00+26nnw44490 0.0 1012734
11:00+31n34260 0.0 10111344
14:00+37n37160 0.0 10082345
17:00+37n109170 0.0 10082415
20:00+32n89270 0.0 1010812
27 june, mon
mon2723:00+28n68390 0.0 1011487
02:00+27n57480 0.0 1010380
05:00+26n46540 0.0 1010322
08:00+28nnw45480 0.0 1011665
11:00+34nw58230 0.0 10101773
14:00+38nw89160 0.0 10072765
17:00+36nnw109190 0.0 10072448
20:00+31nnw78290 0.0 10091001
28 june, tue
tue2823:00+27nw67450 0.0 1010576
02:00+25nnw46600 0.0 1009462
05:00+24nnw34650 0.0 1008382
08:00+26nw23550 0.0 1009660
11:00+31wnw23320 0.0 10081385
14:00+36wnw35200 0.0 10062470
17:00+37wnw76190 0.0 10052925
20:00+31nnw99350 0.0 10081349
29 june, wed
wed2923:00+27nnw66560 0.0 1009652
02:00+25nnw44660 0.0 1008492
05:00+24nw34710 0.0 1008400
08:00+26nw22590 0.0 1008686
11:00+31w22340 0.0 10081281
14:00+35w33220 0.0 10062315
17:00+36wnw44190 0.0 10052757
20:00+31n89380 0.0 1007969
30 june, thu
thu3023:00+28nne56480 0.0 1008532
02:00+27nne33540 0.0 1007395
05:00+26n33590 0.0 1007377
08:00+27nnw33540 0.0 1008664
11:00+31nw23380 0.0 10081287
14:00+36wnw23230 0.0 10062333
17:00+37nw45200 0.0 10052862
20:00+31n910330 0.0 1008986